Nur fliegen ist schöner ....

Willkommen beim Flugservice Bautzen GmbH

Wir sind eine nach europäischen Richtlinien zugelassene Flugschule und lizenziertes Luftfahrtunternehmen. Bei uns können sie nicht nur Rundflüge über die Oberlausitz oder Sachsen buchen, sondern in unserer Flugschule selber das Fliegen erlernen. Erfahrene Fluglehrer stehen Ihnen dabei zur Seite.

Wir bieten Ihnen außerdem spezielle Flüge zur Vermessung oder Fotoflüge für Luftbildaufnahmen an. In Zusammenarbeit mit dem Fallschirmsportclub Dresden und dem Cottbuser Fallschirmsportclub setzen wir am Flugplatz Bautzen und Neuhausen Fallschirmspringer ab.
Schauen Sie sich in Ruhe bei uns um und wenn Sie Fragen haben oder weitere Informationen benötigen, scheuen Sie sich nicht Kontakt mit uns aufzunehmen.

Gutscheine für Rundflüge und Tandemsprünge können Sie ganz leicht auch online in unserem Shop erwerben.

Terminkalender

Letzter Monat Oktober 2019 Nächster Monat
Mo Di Mi Do Fr Sa So
week 40 1 2 3 4 5 6
week 41 7 8 9 10 11 12 13
week 42 14 15 16 17 18 19 20
week 43 21 22 23 24 25 26 27
week 44 28 29 30 31

Flugwetterinfo

[Quelle: ADDS]
METAR
EDDC 200550Z 15011KT CAVOK 12/09 Q1010 NOSIG =
EDDC 200500Z 2006/2106 15010G20KT CAVOK BECMG 2100/2103 15005KT
TAF
EDDC 200500Z 2006/2106 15010G20KT CAVOK BECMG 2100/2103 15005KT =
SR / SS: 05:33 / 16:00 UTC (EDAB Flugplatz Bautzen 2019-10-20)

Öffnungszeiten

des Flugplatzes Bautzen erfahren Sie hier:

flugplatz bautzen logo
Flugservice Bautzen GmbH, Kornmarkt 34, 02625 Bautzen  Telefon: +49 (3591) 211105, Telefax: +49 (3591) 274512, E-Mail:  flugservice(at)fsbautzen.de